Helicity
-7 47 75 78 99 92 114 109 73 73 34 3 16 58 102 53 59 68 55 40 87 207 93 72 86 95 123 133 196 210 193 208 172 166 138 74 108 77 36 50 53 35 43 52
36 62 58 64 89 94 89 74 24 -1 3 70 12 80 21 79 86 33 56 74 16 85 79 41 23 14 228 205 198 239 273 269 240 200 151 113 64 51 81 49 23 51 53 60
80 58 59 81 62 79 59 72 62 38 20 1 3 28 41 39 77 129 93 18 24 28 67 72 39 108 254 366 376 379 312 312 359 232 219 169 98 39 6 -13 -18 22 81 74
41 -2 31 8 3 32 45 60 62 36 35 21 41 59 73 48 94 102 105 66 52 25 1 3 31 68 131 271 419 451 428 373 383 368 259 241 246 169 99 63 62 8 21 70
33 35 3 12 7 13 17 31 56 80 70 63 36 84 24 49 62 43 64 45 20 27 18 36 13 43 61 123 159 288 398 416 413 407 363 309 244 226 226 131 63 60 50 39
40 29 29 16 10 18 13 60 106 132 126 124 54 97 42 56 65 36 11 -4 35 57 38 24 -2 -11 59 85 150 149 280 376 399 409 373 335 313 300 314 271 184 143 97 93
39 39 23 26 20 -14 -15 -21 69 138 167 139 118 156 84 111 51 1 4 11 8 18 31 34 24 38 8 58 75 106 169 391 404 403 357 329 377 323 388 340 272 216 164 139
61 74 64 32 -3 2 12 10 62 100 133 116 136 106 87 61 44 24 20 19 32 47 32 27 36 39 -13 6 76 43 33 176 330 394 365 305 293 373 343 426 337 235 207 174
94 64 33 43 -8 10 25 53 49 124 150 156 112 104 88 50 34 7 2 50 51 42 32 20 31 7 -31 28 29 12 49 155 274 344 372 310 273 285 279 346 383 307 241 185
102 138 69 16 35 56 54 68 100 142 151 169 156 173 172 119 58 73 85 74 50 56 40 24 23 1 7 -4 28 34 86 102 205 262 298 310 216 223 234 233 300 321 258 202
106 133 107 109 87 17 8 37 92 94 136 205 219 185 96 124 142 109 62 77 50 61 44 15 22 -10 7 18 17 55 80 122 161 191 197 238 135 57 113 168 185 238 289 222
87 110 91 65 52 42 28 35 47 90 101 95 151 152 82 109 85 96 94 95 55 31 27 21 -0 -2 3 50 47 95 85 87 140 147 90 54 128 -31 23 84 158 212 223 243
55 131 131 141 159 137 126 79 87 106 137 169 186 162 137 113 142 117 112 79 30 7 20 23 30 52 55 73 71 59 45 35 23 44 47 37 71 116 6 77 113 159 214 210
93 103 106 100 67 108 80 65 66 95 163 138 172 141 90 69 78 43 46 55 47 34 41 43 38 57 48 37 48 30 25 21 -11 -10 36 40 59 84 107 132 180 217 282 278
79 86 72 65 73 117 132 123 87 131 144 175 109 99 64 48 49 59 68 72 72 47 63 64 55 37 45 71 45 33 43 12 9 69 148 175 189 260 272 270 332 287 306 385
26 58 56 115 86 114 177 153 136 123 166 141 115 99 64 72 52 63 70 74 70 56 56 57 53 49 44 42 46 51 40 26 25 52 142 228 153 158 194 125 96 152 212 224
43 65 116 79 48 78 141 120 90 90 100 110 112 64 77 47 50 41 76 80 53 42 46 67 32 42 20 41 73 33 7 22 27 33 87 116 168 181 152 100 59 59 143 214
108 126 108 86 49 132 54 99 93 79 66 89 68 72 56 67 72 42 84 73 21 29 54 40 26 35 30 -5 4 22 25 34 27 40 36 78 64 95 77 49 67 96 87 119
82 130 145 160 150 109 97 123 81 77 61 75 76 73 74 55 38 7 105 33 25 23 24 19 34 31 15 9 39 8 82 81 70 68 52 27 2 5 4 39 81 57 66 85
71 83 122 146 168 142 78 75 91 94 62 69 51 22 46 44 33 25 43 50 30 35 36 53 45 53 35 42 37 60 71 59 75 74 53 46 47 40 49 77 132 105 54 46
108 115 116 117 116 89 52 60 83 93 61 42 40 41 35 48 113 65 -8 34 43 23 49 81 45 47 41 24 44 68 67 72 46 48 51 67 69 64 68 64 62 67 59 64
96 111 107 118 121 98 82 85 82 41 45 49 35 58 42 44 42 52 12 34 43 44 97 116 84 57 24 9 10 34 46 25 18 7 5 4 5 17 30 25 26 24 42 78
113 81 112 95 82 47 55 59 52 89 58 55 67 29 22 19 29 -15 12 59 71 68 80 61 -30 -21 -0 6 10 44 35 20 14 20 24 27 20 19 17 20 11 1 -10 37
95 75 102 122 47 66 52 45 56 73 95 65 70 61 34 22 -3 -12 18 65 66 80 105 73 -1 -9 17 13 32 30 24 34 36 26 27 17 18 22 27 25 35 32 21 8
63 47 58 78 53 56 32 56 49 58 78 83 74 68 45 21 -23 8 32 64 59 88 144 104 8 -11 4 12 21 16 20 17 17 22 27 25 15 13 23 24 18 15 6 -3
88 89 121 108 101 95 77 70 61 60 44 37 32 36 48 21 1 20 45 69 41 75 121 119 43 6 11 33 40 31 10 8 11 17 18 24 17 21 25 21 18 20 13 16
Wind_Speed
28 23 21 25 18 21 27 25 20 15 23 42 34 28 44 51 50 51 39 14 10 19 35 24 16 32 21 47 44 45 41 41 36 35 35 35 41 42 43 44 44 46 45 44
30 17 19 25 25 21 23 26 25 22 35 33 46 41 47 49 47 47 49 42 24 20 17 21 33 19 23 47 54 45 46 36 39 34 34 30 34 38 41 42 46 46 43 40
28 31 34 32 29 27 27 28 29 28 42 38 47 39 47 47 46 44 45 44 45 37 29 29 26 28 27 27 44 43 39 36 32 32 29 17 11 8 31 40 47 48 44 41
30 32 43 44 34 27 31 25 31 35 41 44 42 34 38 46 46 43 45 46 47 44 37 37 40 52 42 28 28 41 36 37 34 33 39 42 32 27 27 40 42 45 44 41
38 39 42 45 40 32 36 36 32 31 32 38 38 35 37 37 40 39 43 45 48 49 52 54 54 53 53 55 50 42 47 39 42 39 38 39 36 28 17 20 30 41 42 45
40 38 34 37 33 43 40 42 40 36 37 37 36 36 38 35 30 29 29 36 45 53 57 59 61 55 55 59 59 56 49 47 46 40 42 39 38 32 28 22 22 30 36 37
45 39 34 38 37 41 49 54 51 44 39 40 40 40 37 28 24 25 28 32 40 50 61 63 64 66 66 67 66 73 58 47 45 44 42 43 40 41 32 30 26 26 29 32
39 44 38 45 43 48 51 49 46 49 47 47 42 40 38 23 25 27 30 38 43 46 57 64 67 71 76 76 69 67 66 60 52 47 45 42 52 49 53 37 29 29 29 30
37 35 35 43 43 45 52 55 43 44 45 46 41 40 29 22 29 33 39 42 47 54 54 59 62 71 75 75 67 63 60 63 57 53 53 50 62 52 56 51 40 36 29 23
36 46 41 42 42 50 49 44 49 48 53 52 46 39 36 41 39 35 44 46 53 58 57 62 66 68 72 71 63 56 52 54 55 54 52 50 55 66 53 64 53 44 42 37
38 40 46 48 52 53 46 46 46 41 44 51 54 45 37 48 47 42 44 46 55 63 63 63 65 68 71 70 61 51 52 54 53 57 57 57 57 72 63 59 68 53 44 38
41 42 50 48 43 39 35 42 45 51 51 47 52 56 34 43 48 48 47 48 60 64 67 61 67 70 70 67 61 58 57 60 61 60 64 71 79 78 65 57 61 60 52 47
38 47 55 50 43 38 45 44 45 45 47 52 59 59 52 61 52 46 46 54 65 70 72 71 71 66 61 61 56 53 55 63 69 76 75 76 74 77 73 66 59 60 56 52
39 40 46 56 50 43 48 45 48 46 57 61 58 72 72 63 47 47 51 55 59 75 75 74 69 62 55 49 48 50 53 58 67 76 84 78 67 59 70 64 54 49 51 51
44 51 44 45 43 46 55 58 59 55 58 62 67 63 59 52 53 55 55 55 59 75 73 70 63 57 49 46 45 48 50 51 52 53 50 44 45 38 37 40 40 40 38 41
47 54 53 58 52 57 59 55 62 59 58 55 57 59 50 48 57 60 59 60 62 69 66 64 55 48 48 44 44 46 47 42 44 41 40 39 34 31 27 26 32 38 42 40
54 55 64 72 68 64 66 59 48 47 44 48 55 54 54 64 66 66 66 62 65 64 62 56 63 45 46 44 43 41 41 38 37 33 31 36 39 40 41 42 40 47 51 55
57 58 57 66 61 68 56 44 44 49 50 46 51 56 58 56 59 67 58 50 59 58 58 58 56 39 38 43 38 37 38 36 33 34 33 35 33 41 52 53 49 47 47 49
40 45 52 56 57 61 54 50 50 54 55 49 50 53 53 58 64 73 49 46 46 60 61 53 38 34 36 38 37 35 31 31 32 33 33 33 27 23 31 36 38 40 40 38
43 43 46 50 58 61 47 44 44 43 62 42 46 54 58 62 73 67 53 47 60 50 54 36 29 32 33 31 29 29 28 26 29 31 32 33 33 33 32 34 38 39 35 33
52 51 51 49 54 53 44 39 38 53 53 54 52 56 64 64 57 60 70 67 53 54 46 28 24 23 28 25 24 27 25 25 27 29 29 28 28 29 32 33 34 38 36 31
49 50 51 45 52 59 32 39 47 48 57 57 62 63 65 69 74 70 72 67 53 44 32 34 24 19 20 20 21 22 22 26 28 29 31 31 30 32 33 32 33 33 30 30
47 39 46 39 45 43 37 38 48 49 59 65 66 70 73 77 78 73 70 55 43 26 27 27 20 13 17 20 23 23 29 29 30 33 35 35 34 36 39 38 34 31 29 26
37 35 45 52 44 43 54 51 46 51 53 63 65 69 71 73 74 71 67 47 39 27 17 19 14 17 19 22 25 26 29 31 32 34 36 36 35 36 36 36 37 36 36 32
43 43 51 50 55 54 51 45 53 55 58 62 60 61 60 63 66 60 51 42 36 29 21 16 18 21 21 22 24 27 30 33 36 37 39 38 36 34 33 33 32 33 33 32
42 48 46 56 52 48 48 46 48 56 61 58 60 60 52 55 58 52 44 38 37 24 21 17 19 22 23 25 28 33 33 34 36 38 38 37 35 34 34 33 32 32 30 30
Wind_Direction
9 36 64 39 50 35 24 25 30 38 32 9 18 12 1 350 353 353 355 49 133 164 289 271 246 181 182 185 183 183 182 181 172 168 167 168 175 175 177 178 178 177 175 174
360 34 39 23 20 27 26 26 30 28 17 27 12 17 15 7 10 14 11 7 14 345 329 289 283 276 264 195 198 193 191 188 185 181 178 173 173 178 179 178 181 175 174 175
1 3 9 4 3 9 15 21 17 20 6 11 4 12 16 14 6 359 2 7 3 354 330 313 292 265 264 230 207 207 204 201 201 194 186 188 183 174 174 181 186 183 179 179
1 9 357 355 1 15 7 19 10 5 2 3 10 6 10 7 7 5 354 341 337 341 343 324 310 288 288 247 251 259 224 216 221 211 194 193 196 193 185 185 185 188 187 185
343 351 351 355 359 10 2 4 7 6 6 3 9 7 1 5 3 8 359 347 331 322 320 314 316 310 302 289 279 268 263 243 243 223 212 204 206 211 238 196 189 191 192 194
341 352 351 351 3 1 1 357 352 355 353 351 356 356 355 360 7 14 19 6 343 320 319 314 313 314 317 303 287 277 265 256 248 228 224 228 224 246 243 218 210 197 196 196
334 348 357 358 350 353 352 346 340 342 344 339 347 342 343 2 24 30 20 12 356 340 315 308 309 307 309 309 293 280 267 255 246 236 229 226 231 240 231 218 218 210 204 204
333 331 346 349 351 341 345 348 342 335 337 337 344 343 350 19 24 19 10 357 351 345 329 317 309 304 297 307 304 293 268 260 254 248 245 235 248 245 254 248 236 214 212 211
334 337 349 353 357 351 340 340 346 339 339 338 343 345 357 12 2 357 353 351 347 339 339 331 333 310 307 306 312 294 279 262 258 255 257 256 257 248 248 250 246 253 249 241
341 324 338 346 347 347 345 347 339 340 333 333 338 340 343 345 344 345 343 342 337 331 333 330 331 316 316 314 311 295 289 269 263 261 261 263 259 255 248 255 253 254 262 264
344 335 331 335 334 335 345 345 349 346 342 334 330 330 342 337 340 340 339 339 334 326 326 324 323 317 318 322 306 302 287 276 271 266 264 265 264 260 256 256 258 257 260 259
336 332 326 332 340 344 352 349 346 335 330 330 326 322 340 336 334 333 333 334 326 321 320 324 314 317 315 320 314 285 286 275 273 272 266 265 262 260 258 257 255 257 259 262
333 327 322 327 335 339 333 337 339 337 332 323 321 322 331 325 327 331 333 331 318 314 315 313 313 318 320 319 319 312 284 271 270 263 264 262 264 261 259 259 259 259 258 261
333 328 322 318 324 331 328 329 330 326 321 320 318 320 324 326 330 333 334 333 330 314 316 315 314 316 319 325 325 318 301 286 272 263 261 264 268 268 258 258 258 260 260 263
335 322 325 324 325 323 320 321 322 316 315 313 319 321 326 330 332 333 333 332 331 315 319 317 320 319 316 316 320 317 321 311 301 285 277 272 270 263 259 254 252 256 261 266
328 320 322 318 321 317 315 317 316 314 314 312 317 319 329 332 331 330 331 330 329 321 322 320 325 324 316 314 310 317 324 317 311 299 285 279 275 267 252 251 258 262 266 273
318 318 316 314 319 319 317 320 324 330 329 322 318 323 330 327 327 326 327 330 326 326 325 326 304 323 305 304 306 312 315 325 320 314 301 290 281 275 268 270 272 272 276 274
312 312 314 313 321 316 327 334 334 329 329 326 322 323 327 328 328 324 329 334 328 332 326 320 309 317 315 303 315 307 303 310 311 309 307 303 299 283 269 269 273 275 281 290
324 320 315 315 316 318 322 326 329 329 328 331 329 329 330 330 326 324 338 332 337 322 316 326 334 336 311 306 309 301 309 315 320 323 310 317 322 335 288 275 278 283 291 295
333 328 320 319 316 317 330 335 340 341 325 339 335 328 330 327 315 323 341 339 325 334 325 337 342 331 307 321 353 359 334 319 326 317 317 301 306 305 312 300 292 296 308 301
317 320 317 317 316 320 328 335 343 328 329 331 330 326 319 320 325 321 298 311 326 319 333 344 344 348 315 330 1 12 348 331 323 327 327 313 308 316 318 314 306 292 295 308
316 317 316 322 319 319 341 337 330 330 325 326 321 324 322 317 311 309 296 305 315 323 351 334 318 322 316 338 344 2 333 314 318 324 324 317 325 334 334 320 318 315 299 293
314 322 321 322 321 330 335 330 323 326 324 317 319 318 317 307 303 290 295 310 317 342 358 9 310 359 358 341 341 337 310 310 320 332 330 319 314 340 351 349 336 334 331 308
318 328 321 322 330 325 320 320 325 325 324 320 322 322 315 312 300 289 292 307 311 321 1 19 23 37 11 11 335 319 314 313 324 313 313 314 321 331 346 351 356 0 6 7
312 319 316 316 317 319 321 326 325 324 326 326 329 326 322 319 305 306 307 313 316 310 323 17 329 2 12 2 329 321 317 309 302 301 302 306 313 318 341 345 343 349 357 6
308 308 310 309 314 319 319 323 329 327 325 329 325 325 328 325 316 314 314 316 317 317 311 333 349 315 329 323 327 308 305 306 306 305 303 305 310 315 320 319 324 336 352 359